Ohio State University, OH

10:53 AM EST on November 21, 2017 (GMT -0500)
Ohio State University

Weather History for KOSU - September, 2012

Change the Weather History Date:

Tuesday, September 25, 2012

  Actual Average Record
Temperature  
Mean Temperature 57 °F -  
Max Temperature 66 °F 70 °F 91 °F (2007)
Min Temperature 48 °F 48 °F 41 °F (1997)
Degree Days  
Heating Degree Days 8    
Growing Degree Days 7 (Base 50)    
Moisture  
Dew Point 48 °F    
Average Humidity 72    
Maximum Humidity 93    
Minimum Humidity 50    
Precipitation  
Precipitation 0.01 in - - ()
Sea Level Pressure  
Sea Level Pressure 30.02 in    
Wind  
Wind Speed 7 mph (South)    
Max Wind Speed 18 mph    
Max Gust Speed 29 mph    
Visibility 10 miles    
Events Rain    
Averages and records for this station are not official NWS values.
T = Trace of Precipitation, MM = Missing Value Source: NWS Daily Summary

Daily Weather History Graph

Daily Weather History Graph

Search for Another Location

Airport or City:

Trip Planner

Search our weather history database for the weather conditions in past years. The results will help you decide how hot, cold, wet, or windy it might be!

Date:

Astronomy

Sep. 25, 2012 Rise Set
Actual Time 7:23 AM EDT 7:23 PM EDT
Civil Twilight 6:56 AM EDT 7:50 PM EDT
Nautical Twilight 6:24 AM EDT 8:22 PM EDT
Astronomical Twilight 5:52 AM EDT 8:54 PM EDT
Moon 4:47 PM EDT (9/25) 2:43 AM EDT (9/25)
Length of Visible Light 12h 54m
Length of Day
12h 00m
Waxing Gibbous, 80% of the Moon is Illuminated
Sep 25
Waxing Gibbous
Sep 29
Full
Oct 8
Last Quarter
Oct 15
New
Oct 21
First Quarter

Hourly Weather History & Observations

Time (EDT) Temp. Dew Point Humidity Pressure Visibility Wind Dir Wind Speed Gust Speed Precip Events Conditions
12:53 AM 50.0 °F 37.0 °F 61% 30.06 in 10.0 mi South 4.6 mph - N/A   Clear
1:53 AM 48.9 °F 37.0 °F 64% 30.07 in 10.0 mi SSW 5.8 mph - N/A   Clear
2:53 AM 50.0 °F 37.9 °F 63% 30.06 in 10.0 mi South 4.6 mph - N/A   Clear
3:53 AM 48.9 °F 37.9 °F 66% 30.06 in 10.0 mi South 5.8 mph - N/A   Clear
4:53 AM 50.0 °F 39.0 °F 66% 30.06 in 10.0 mi South 4.6 mph - N/A   Clear
5:53 AM 48.0 °F 39.0 °F 71% 30.06 in 10.0 mi South 5.8 mph - N/A   Scattered Clouds
6:53 AM 50.0 °F 39.9 °F 68% 30.04 in 10.0 mi South 9.2 mph - 0.00 in   Mostly Cloudy
7:53 AM 50.0 °F 39.9 °F 68% 30.04 in 10.0 mi South 5.8 mph - N/A   Partly Cloudy
8:53 AM 53.1 °F 42.1 °F 66% 30.06 in 10.0 mi South 5.8 mph - N/A   Overcast
9:53 AM 55.9 °F 43.0 °F 62% 30.07 in - Calm Calm - 0.00 in   Overcast
10:53 AM 59.0 °F 45.0 °F 60% 30.04 in 10.0 mi SSE 5.8 mph - N/A   Mostly Cloudy
11:53 AM 63.0 °F 46.0 °F 54% 30.03 in 10.0 mi South 11.5 mph - N/A   Clear
12:53 PM 66.0 °F 46.9 °F 50% 30.03 in 10.0 mi South 13.8 mph - N/A   Clear
1:53 PM 66.0 °F 48.9 °F 54% 30.01 in 10.0 mi SSW 18.4 mph 28.8 mph N/A   Overcast
3:53 PM 61.0 °F 54.0 °F 78% 30.00 in 10.0 mi SSW 6.9 mph - 0.01 in Rain Light Rain
4:00 PM 60.8 °F 53.6 °F 77% 30.00 in 10.0 mi SSW 8.1 mph - 0.00 in   Overcast
4:53 PM 62.1 °F 54.0 °F 75% 29.99 in 10.0 mi South 6.9 mph - 0.00 in   Overcast
5:53 PM 63.0 °F 57.0 °F 81% 29.99 in 10.0 mi SW 15.0 mph - N/A   Overcast
6:53 PM 63.0 °F 57.0 °F 81% 29.99 in 10.0 mi SSW 10.4 mph - N/A   Overcast
7:53 PM 62.1 °F 57.0 °F 84% 29.99 in 10.0 mi South 8.1 mph - N/A   Overcast
8:53 PM 61.0 °F 57.9 °F 90% 29.98 in 10.0 mi South 9.2 mph - 0.00 in   Overcast
9:20 PM 60.8 °F 57.2 °F 88% 29.98 in 10.0 mi South 8.1 mph - N/A   Overcast
9:53 PM 60.1 °F 57.9 °F 93% 29.99 in 10.0 mi South 8.1 mph - N/A   Overcast
10:53 PM 59.0 °F 57.0 °F 93% 30.01 in 9.0 mi SSE 5.8 mph - N/A   Mostly Cloudy
11:53 PM 59.0 °F 57.0 °F 93% 29.99 in 10.0 mi SSE 8.1 mph - N/A   Scattered Clouds